Theta_e
301 303 305 308 309 307 299 293 291 289 288 287 287 287 287 287 286 286 285 285 285 284 283 283 282 282 282 282 281 282 282 282 282 282 281 281 280 279 279 278 278 278 278
306 308 308 305 298 292 291 290 288 287 287 287 286 286 286 286 285 285 284 284 283 283 282 282 282 281 281 280 280 280 280 281 280 280 280 279 278 278 277 277 277 277 276
302 301 297 293 292 290 289 287 287 287 286 286 285 285 285 285 285 284 284 283 282 282 282 281 281 281 279 279 279 279 279 279 279 278 278 277 277 276 276 276 276 274 275
298 296 293 291 289 289 287 287 287 286 286 285 284 284 284 284 284 284 284 282 282 281 281 281 280 279 279 279 279 279 279 278 277 277 277 277 276 275 276 275 274 274 274
294 292 291 290 289 288 287 286 286 285 284 284 283 283 283 283 283 283 282 282 281 281 281 280 280 279 279 279 279 278 277 277 276 276 276 275 275 275 275 273 274 274 274
292 291 291 290 289 287 286 285 284 284 283 283 282 282 282 282 282 282 281 281 281 280 280 280 279 279 278 278 277 277 276 275 276 275 275 274 274 274 273 273 273 273 274
292 291 291 289 288 286 285 284 283 283 282 282 282 281 281 281 281 280 280 280 280 280 279 279 279 278 278 277 276 275 274 274 274 274 274 274 273 272 273 273 273 273 272
291 291 290 288 286 285 284 283 282 282 282 281 281 281 281 280 280 279 280 280 279 279 279 279 278 278 277 276 275 274 273 273 272 273 273 272 272 272 272 272 271 271 270
291 290 288 287 286 285 283 283 282 282 281 280 280 280 280 279 279 278 279 279 279 279 278 278 277 277 276 276 275 273 273 271 272 272 271 270 270 271 271 270 269 269 269
291 290 288 287 286 285 284 282 281 281 280 280 280 279 279 278 278 277 278 278 278 278 277 277 277 276 276 275 274 273 271 271 271 269 268 267 268 268 268 268 268 268 269
290 289 288 287 286 284 282 281 281 280 279 279 279 278 278 278 277 277 277 277 277 277 276 276 276 275 274 274 273 271 271 272 269 267 266 266 266 266 266 266 266 267 268
290 289 288 287 285 283 281 280 280 279 279 278 278 277 278 277 277 276 276 277 277 276 276 275 275 274 273 272 271 271 271 268 266 265 265 265 266 265 265 265 266 266 266
290 289 287 285 283 282 281 280 279 278 277 277 277 277 278 278 277 276 276 276 276 276 275 275 273 271 270 269 269 269 268 265 265 264 264 265 264 264 264 264 264 264 264
288 287 286 284 283 281 280 279 278 278 277 277 277 278 278 278 277 275 275 275 275 275 274 273 271 270 269 268 267 266 265 265 264 264 264 263 263 263 263 263 263 263 264
288 286 285 284 282 281 280 280 279 279 278 278 277 277 278 277 276 275 275 274 274 274 272 271 269 268 267 266 266 265 264 264 263 263 262 262 262 262 262 262 262 262 263
286 286 285 283 282 281 280 279 278 277 277 277 277 277 277 276 276 275 274 274 274 273 270 269 267 266 266 265 264 264 264 263 263 262 261 261 261 261 261 261 261 262 262
287 286 285 283 282 280 279 278 277 277 277 277 276 277 277 276 275 274 273 273 272 270 269 267 266 266 265 264 264 263 263 262 262 261 261 261 260 260 260 260 260 261 261
287 286 284 283 282 281 279 278 277 276 276 276 276 276 276 275 274 273 272 272 270 268 267 266 266 265 264 264 263 263 262 262 261 261 260 260 260 260 259 259 259 260 260
285 284 283 281 280 280 279 278 277 276 275 275 274 274 274 273 273 271 271 270 269 267 266 266 265 264 263 263 263 262 261 261 260 260 260 260 259 259 258 258 258 259 260
283 282 280 279 279 278 277 276 275 274 274 273 273 273 272 270 270 269 269 269 267 267 266 265 264 263 263 262 262 261 260 260 260 259 259 259 259 258 258 258 258 259 259
280 279 278 277 276 276 276 275 274 273 272 272 272 272 272 271 270 268 269 268 266 265 264 264 263 262 262 261 260 260 259 259 259 259 259 258 258 258 258 258 258 259 259
278 277 276 276 275 274 274 273 272 272 272 271 271 271 272 270 268 268 267 266 265 265 264 263 262 262 261 260 259 259 258 258 258 258 258 258 257 258 258 258 258 259 260
277 275 274 274 273 272 272 272 271 271 271 271 270 270 269 269 268 267 266 265 265 264 263 261 261 261 261 261 261 260 258 258 258 257 257 257 257 257 257 257 258 259 260
276 274 273 272 272 271 271 271 270 270 270 270 269 269 268 267 266 266 265 264 263 262 261 261 262 262 262 262 262 262 261 260 259 258 256 256 257 257 258 258 259 259 260
274 273 272 271 271 271 270 270 270 269 269 269 268 267 266 266 265 265 264 263 262 262 262 262 262 263 263 263 263 263 262 261 261 260 259 258 258 259 259 259 260 260 260
273 272 271 271 270 270 270 269 269 269 268 267 267 266 266 265 265 264 263 262 262 262 262 263 263 264 264 264 264 263 263 263 263 261 260 260 260 260 260 260 261 260 260
Wind_Speed
20 16 13 10 2 3 3 4 4 5 5 5 5 4 5 6 6 6 7 8 8 9 9 9 11 11 13 14 16 17 18 19 17 24 27 31 33 34 34 35 33 34 35
15 12 10 8 7 8 7 7 6 6 5 4 4 4 4 3 5 6 6 7 7 8 9 9 11 12 13 15 17 18 18 20 22 26 28 29 31 32 35 36 33 31 37
14 11 8 9 10 9 8 8 6 4 4 4 3 3 2 3 4 4 5 5 7 8 8 9 10 12 14 17 17 20 21 21 22 24 27 28 29 32 36 32 32 37 33
12 10 10 10 9 9 8 7 6 5 4 4 4 4 3 1 1 2 4 5 5 5 7 8 9 12 13 16 16 20 20 23 22 21 24 26 28 31 30 35 38 34 37
13 12 12 11 10 9 8 7 6 6 5 5 4 3 3 2 2 3 4 4 5 6 6 6 7 11 8 13 15 20 23 23 22 22 23 25 26 30 30 35 35 38 35
15 14 13 12 11 10 9 8 8 8 7 7 6 5 3 4 3 3 4 4 5 5 6 7 9 9 12 13 15 20 20 23 23 23 23 24 27 29 32 32 33 33 16
18 16 15 15 13 12 11 11 10 9 9 9 7 7 5 5 4 3 4 4 5 5 7 8 11 10 13 14 19 19 21 18 19 22 23 26 29 32 33 32 30 30 31
20 18 18 17 14 13 12 13 11 11 10 9 8 7 6 6 6 5 3 4 6 5 7 9 11 12 13 16 21 20 20 20 19 20 23 27 28 29 27 27 29 32 33
21 21 19 16 16 14 14 14 13 13 12 11 10 9 8 8 7 5 4 4 4 6 8 10 10 10 12 18 20 20 18 20 18 20 25 22 24 22 23 27 25 27 28
23 20 17 16 16 16 16 15 15 14 13 12 11 10 11 10 8 6 5 5 4 6 9 9 8 10 14 19 19 18 21 21 24 29 27 27 22 21 21 20 24 25 26
18 17 17 17 18 17 16 17 16 14 14 13 12 13 12 10 9 8 6 4 4 7 9 9 12 14 17 17 16 18 17 22 26 23 26 27 24 24 23 23 25 24 26
17 18 19 18 18 17 17 17 16 16 15 14 13 14 13 12 10 9 7 5 5 8 8 10 15 14 15 15 14 14 17 18 20 23 24 22 23 26 26 27 26 25 26
18 19 18 18 19 19 18 18 18 17 16 16 16 16 13 12 10 9 8 7 6 8 9 9 11 13 12 13 13 14 16 17 19 22 20 20 25 27 28 26 25 27 27
18 18 20 21 21 21 20 20 19 20 20 20 19 18 14 14 13 9 7 8 8 9 13 17 14 11 10 11 14 15 15 15 16 19 20 27 25 23 24 24 26 27 26
19 21 22 22 22 22 23 24 24 24 23 22 20 17 16 16 13 10 9 7 7 10 12 14 14 12 13 14 15 15 15 16 17 19 24 24 22 23 23 24 24 23 21
22 23 24 24 24 24 24 24 22 19 19 18 14 15 17 13 10 10 9 7 8 8 13 13 12 12 13 15 16 17 18 18 18 20 22 19 22 21 23 23 21 21 21
27 28 27 26 27 27 25 25 24 21 19 18 16 17 16 13 11 12 9 8 8 9 12 12 13 13 15 16 17 18 20 20 19 18 19 22 21 21 22 22 21 21 21
27 29 29 30 28 27 26 26 24 23 23 23 18 17 16 15 13 12 9 10 13 11 14 15 15 15 16 17 18 19 21 22 21 20 21 21 21 22 22 20 20 20 21
24 28 28 29 29 27 26 25 24 22 22 19 17 16 18 14 14 11 9 15 14 15 13 14 14 16 17 18 19 20 21 22 22 21 20 20 21 22 20 21 21 21 22
24 25 25 25 26 26 24 23 23 23 22 22 20 21 19 19 19 16 17 16 15 15 14 14 15 16 17 19 20 21 21 22 22 21 21 21 21 20 21 23 21 20 20
22 23 21 23 24 25 26 26 25 23 23 23 23 21 20 20 18 16 16 16 15 14 13 14 15 16 17 18 19 21 22 24 24 23 21 21 21 22 23 21 21 20 20
18 20 21 21 22 24 25 23 23 23 23 22 21 19 16 18 17 17 16 14 12 12 13 14 15 15 16 17 19 20 22 24 24 21 20 21 22 23 21 20 20 19 19
16 18 21 21 20 21 22 22 22 23 23 22 22 21 21 21 20 16 13 11 11 12 11 13 14 14 14 14 15 17 20 22 23 21 20 22 23 22 21 20 19 19 19
15 17 20 21 20 20 22 23 23 22 22 22 22 21 19 17 14 12 11 10 10 9 10 10 11 12 14 15 16 17 19 20 18 19 19 21 23 23 20 19 20 19 19
17 18 19 21 22 22 22 22 22 23 23 22 21 19 16 14 13 11 10 9 8 8 7 8 10 11 14 16 18 18 18 17 16 15 16 16 17 18 20 20 19 17 18
19 20 21 21 22 23 23 23 23 22 22 22 20 17 15 13 11 10 9 8 6 6 7 8 11 11 11 15 18 18 16 15 14 15 16 17 18 18 19 17 15 17 17
Wind_Direction
123 124 118 108 133 248 203 158 151 142 132 116 101 95 71 62 58 51 46 41 38 34 35 33 26 22 21 11 9 8 356 346 319 319 321 324 326 329 330 331 332 332 330
133 140 159 157 161 164 168 159 168 156 131 121 120 101 88 74 60 48 43 37 33 26 23 21 18 13 15 8 8 2 351 344 332 317 321 324 325 328 327 329 332 331 325
155 156 151 160 171 179 176 169 160 152 144 139 139 144 133 81 59 40 27 27 24 10 13 16 10 2 3 3 5 355 348 335 328 319 316 322 323 330 330 328 329 326 329
163 168 172 176 182 185 188 184 172 177 172 172 173 174 150 155 62 35 8 8 10 1 7 3 1 353 2 1 356 349 340 334 327 322 318 321 328 330 328 329 328 332 329
177 179 185 189 194 198 199 192 188 191 192 196 195 188 184 235 312 354 355 348 345 355 355 349 351 349 352 356 348 343 339 332 329 326 325 325 327 331 333 329 323 324 325
184 189 196 200 203 204 208 207 202 199 196 206 206 212 210 252 306 335 349 333 327 335 334 338 339 344 336 348 339 337 339 335 331 331 327 322 324 327 326 325 324 325 323
194 196 203 208 207 209 211 213 212 210 209 215 216 219 225 250 276 292 322 329 309 316 325 333 331 328 329 334 337 337 335 333 332 326 321 322 325 324 323 323 322 322 319
200 203 208 210 210 212 214 219 217 220 222 226 230 234 236 249 250 264 293 308 310 312 326 317 323 316 331 335 338 335 333 327 327 324 321 319 319 320 322 321 324 321 319
207 210 212 213 215 217 220 222 224 225 225 228 232 237 240 245 255 250 271 299 304 312 317 316 315 325 334 337 335 331 325 323 325 322 320 322 323 324 327 331 332 330 319
212 214 216 219 225 228 229 227 228 227 229 233 237 241 240 233 248 250 258 284 305 302 302 315 314 323 331 334 332 326 326 327 325 326 331 334 336 331 332 332 328 320 315
217 219 224 228 232 232 232 230 231 230 231 233 235 236 242 243 241 250 239 262 249 287 307 317 304 320 326 326 327 319 324 323 321 332 331 335 336 332 330 327 325 319 316
222 225 230 233 234 235 236 235 234 234 234 235 236 240 242 240 241 239 230 245 255 288 297 291 307 317 317 321 320 322 325 320 331 333 334 331 330 325 324 322 322 321 316
226 230 234 237 238 238 237 237 234 235 235 236 234 237 237 241 240 230 230 249 264 282 282 298 303 312 316 315 317 322 313 330 331 332 329 323 320 319 319 322 325 327 325
233 236 237 238 240 242 243 241 240 236 236 236 231 234 232 227 236 234 216 231 256 262 279 293 304 305 305 308 312 321 323 325 324 327 321 319 322 319 322 328 328 329 327
242 242 242 244 244 245 245 245 245 248 245 243 241 237 225 218 232 224 220 245 261 285 288 291 302 312 312 317 315 316 318 323 327 325 321 322 316 320 322 327 326 327 328
249 249 247 247 249 248 249 250 243 247 243 236 234 233 231 232 207 212 233 246 249 268 278 292 296 296 299 306 305 310 317 321 323 320 320 312 315 316 320 323 325 327 326
255 258 256 252 247 246 244 244 246 246 239 238 236 234 231 239 220 218 230 240 253 262 267 280 285 290 297 301 303 307 308 313 317 315 315 314 317 315 320 320 323 325 326
259 259 256 255 252 250 250 250 247 243 238 238 232 231 228 224 226 228 233 238 251 258 267 279 285 294 299 299 303 304 306 309 314 316 312 316 315 316 315 316 320 321 322
270 266 262 259 260 259 254 250 248 242 235 241 239 219 219 221 221 228 227 241 256 269 276 282 292 297 298 300 303 300 299 302 306 307 307 309 312 317 310 312 315 315 318
276 271 267 263 257 251 244 240 237 238 237 231 225 227 223 215 221 229 231 246 260 272 283 290 297 296 298 300 299 298 298 301 302 303 303 306 311 314 308 312 314 309 315
283 278 271 260 254 252 248 242 242 239 234 230 232 230 230 225 226 228 236 251 264 276 285 289 293 296 300 300 297 298 298 298 299 299 301 304 309 309 313 314 314 310 310
281 273 269 261 256 251 249 247 241 234 231 228 222 220 212 224 225 233 243 254 265 276 287 292 298 305 308 306 304 300 298 297 300 301 301 300 301 309 312 311 312 314 310
282 266 264 263 257 251 247 242 235 231 229 224 221 218 210 221 229 239 249 259 273 286 294 300 308 312 316 317 314 308 300 299 300 298 293 297 302 305 308 307 311 307 308
279 264 259 260 256 246 238 236 235 233 229 225 220 220 220 222 229 240 252 267 279 288 297 307 315 321 325 326 321 318 314 312 304 294 289 290 294 298 300 304 306 305 303
278 266 257 254 250 244 241 239 236 231 227 224 221 220 219 223 231 243 258 269 278 289 303 311 316 322 322 323 322 321 319 314 303 295 288 288 289 291 293 297 302 300 305
278 268 262 256 251 248 243 237 233 231 223 220 219 218 221 226 235 248 256 266 273 286 305 314 320 325 335 340 339 328 319 319 319 317 307 296 293 294 296 296 292 297 307